Location: ??????
(56.0120°N, 39.1740°E)
Time: 20:01:32
(UTC+00:00)

In-Cosmos 22 Rocket - Pass Details

Date: 14 April 2026
Orbit: 789 x 886 km, 81.2° (Epoch: 16 May)

Event Time Altitude Azimuth Distance (km) Brightness Sun altitude
Rises 17:36:15 0° 344° (NNW) 3,333 8.2 -9.4°
Reaches altitude 10° 17:38:40 10° 342° (NNW) 2,387 7.4 -9.7°
Maximum altitude 17:43:59 67° 261° (W) 859 4.4 -10.3°
Drops below altitude 10° 17:49:13 10° 179° (S) 2,349 6.2 -10.9°
Enters shadow 17:51:29 - 177° (S) 3,234 6.9 -11.1°
